Regional Weather Roundup
Issued by NWS

Home | Current Version | Previous Version | Graphics & Text | Print | Product List | Glossary Off
Versions: 1 2 3 4 5 6 7 8 9 10 11 12 13 14 15 16 17 18 19 20 21 22 23 24 25 26 27 28 29 30 31 32 33 34 35 36 37 38 39 40 41 42 43 44 45 46 47 48 49 50

000
ASUS43 KMKX 212300
RWRWI

WISCONSIN REGIONAL WEATHER ROUNDUP
NATIONAL WEATHER SERVICE MILWAUKEE/SULLIVAN WI
600 PM CDT THU AUG 21 2014

NOTE: "FAIR" INDICATES FEW OR NO CLOUDS BELOW 12,000 FEET WITH NO
SIGNIFICANT WEATHER AND/OR OBSTRUCTIONS TO VISIBILITY.

WIZ001-002-006>008-014>016-023>028-220000-
NORTHWEST WISCONSIN

CITY           SKY/WX    TMP DP  RH WIND       PRES   REMARKS
SUPERIOR ARPT  CLOUDY    62  60  96 NE13G21   29.89R
ASHLAND        CLOUDY    66  62  87 N8        29.90R
HAYWARD        CLOUDY    74  68  81 VRB5      29.88S
SIREN          CLOUDY    73  70  90 E5        29.86R FOG
RICE LAKE      LGT RAIN  74  68  82 E6        29.87F
LADYSMITH      CLOUDY    74  69  82 SE7       29.90R
EAU CLAIRE     NOT AVBL
MENOMONIE      CLOUDY    77  70  79 SE14      29.83F
NEW RICHMOND   CLOUDY    73  72  97 E6        29.84R
OSCEOLA        LGT RAIN  75  73  93 E6        29.85S
$$

WIZ003>005-009-010-017-018-220000-
NORTH CENTRAL WISCONSIN

CITY           SKY/WX    TMP DP  RH WIND       PRES   REMARKS
WOODRUFF       CLOUDY    72  66  82 SE9       29.95R
RHINELANDER    CLOUDY    67  63  87 SE8       29.96R
EAGLE RIVER    CLOUDY    68  64  87 S3        29.96R
LAND O LAKES   CLOUDY    68  64  85 SE7       29.96S
PHILLIPS       CLOUDY    69  66  89 SE8       29.92R
TOMAHAWK       CLOUDY    67  64  89 SE5       29.94S
MEDFORD        CLOUDY    68  66  94 E5        29.91F
MERRILL        CLOUDY    67  66  98 SE8       29.94S FOG
$$

WIZ029-030-035-036-043>047-220000-
CENTRAL WISCONSIN

CITY           SKY/WX    TMP DP  RH WIND       PRES   REMARKS
WAUSAU         CLOUDY    69  66  90 E9        29.91F FOG
MOSINEE        CLOUDY    70  68  94 E9        29.93S
MARSHFIELD     PTSUNNY   77  70  79 S10       29.90S
STEVENS POINT  CLOUDY    70  67  90 E8        29.93S
WAUPACA        PTSUNNY   75  71  87 NE7       29.92F
WAUTOMA        NOT AVBL
WISC RAPIDS    PTSUNNY   77  70  79 SE7       29.91S
CAMP DOUGLAS   NOT AVBL
$$

WIZ011>013-019>022-031-037>040-048>050-220000-
NORTHEAST WISCONSIN

CITY           SKY/WX    TMP DP  RH WIND       PRES   REMARKS
ANTIGO         CLOUDY    64  64  99 SE8       29.97S FOG
STURGEON BAY   CLOUDY    66  61  82 E3        29.97R
GREEN BAY      CLOUDY    72  66  81 E7        29.94S
MANITOWOC      NOT AVBL
APPLETON       CLOUDY    72  66  83 SE6       29.94R
CLINTONVILLE   CLOUDY    70  64  83 E6        29.94R
OSHKOSH        CLOUDY    72  69  90 E7        29.93R
$$

WIZ032>034-041-042-053>061-220000-
SOUTHWEST WISCONSIN

CITY           SKY/WX    TMP DP  RH WIND       PRES   REMARKS
LA CROSSE      MOSUNNY   83  72  69 SE12      29.85R HX  88
SPARTA         MOSUNNY   81  69  66 S7        29.88S HX  84
VIROQUA        MOCLDY    80  74  83 S7        29.90R HX  84
BOSCOBEL       MOSUNNY   81  71  71 S6        29.89R HX  85
PRAIRIE DU CHI CLOUDY    78  71  77 CALM      29.87R HX  81
PLATTEVILLE    PTSUNNY   76  73  91 SE9       29.89F
$$

WIZ056-057-062-063-064-067-068-220000-
SOUTH CENTRAL WISCONSIN

CITY           SKY/WX    TMP DP  RH WIND       PRES   REMARKS
BARABOO/DELLS  CLOUDY    76  70  82 CALM      29.90R
LONE ROCK      NOT AVBL
WATERTOWN      CLOUDY    75  72  89 SE6       29.90F
MADISON        PTSUNNY   77  71  82 S8        29.90R
MIDDLETON      CLOUDY    79  74  85 S7        29.90R HX  82
MONROE         PTSUNNY   75  72  88 S9        29.90S
JANESVILLE     MOSUNNY   77  73  88 S8        29.89S
$$

WIZ051-052-058>065-066-070>072-220000-
SOUTHEAST WISCONSIN

CITY           SKY/WX    TMP DP  RH WIND       PRES   REMARKS
MILWAUKEE      PTSUNNY   77  70  79 S7        29.91F
WAUKESHA       PTSUNNY   73  70  88 S5        29.93S
MILWAUKEE/TIMM CLOUDY    75  68  78 SE6       29.92F
RACINE         PTSUNNY   75  69  81 S10       29.93F
BURLINGTON     PTSUNNY   75  71  88 S3        29.91S
KENOSHA        PTSUNNY   76  71  85 S9        29.92F
FOND DU LAC    CLOUDY    76  69  79 S6        29.92S
SHEBOYGAN      CLOUDY    70  67  90 SE5       29.94S FOG
WEST BEND      CLOUDY    73  68  83 SE3       29.93S
JUNEAU         CLOUDY    75  45  34 SE6       29.93S
$$

LSZ147-162-220000-
LAKE SUPERIOR

STATION/POSITION TIME  TEMP    WIND        PRES    WAVE
                       AIR SEA DIR/SP/G            HT/PER
                 (UTC) (F)     (DEG/KT/KT) (MB)    (FT/S)
W MID LAKE BUOY  2150   59 59   60/ 14/ 17 1012.6F   2/ 4
DEVILS ISLAND    2200   62      60/ 14/ 16 1012.5
PORT WING        2240   64      30/ 15/ 18 1012.2R
SAXON HARBOR     2200   67        CALM     1011.9S
$$

LMZ867-665-643>646-220000-
LAKE MICHIGAN

STATION/POSITION TIME  TEMP    WIND        PRES    WAVE
                       AIR SEA DIR/SP/G            HT/PER
                 (UTC) (F)     (DEG/KT/KT) (MB)    (FT/S)
N MID LAKE BUOY  2150   65 65   60/  8/ 10 1014.2F   0
NORTHPORT PIER   2200   66      90/  5/  9 1014.6S
SISTER BAY       2241   67     110/  7/ 10   N/A
ALGOMA LAKESHORE 2238           90/  7/  9   N/A
KEWAUNEE LAKESHO 2200   65      60/  3/  5 1013.2F
SHEBOYGAN LAKESH 2200   67 67  160/  4/  5 1014.2R
ATWATER BUOY     2200   70     140/  8/ 10 1014.3F
MILWAUKEE LAKESH 2200   70     150/  6/  7   N/A
S MID LAKE BUOY  2150   69 69  170/  8/ 10 1013.6F   1
KENOSHA   LAKESH 2200   72     180/  8/ 12 1012.9S
$$

TC  - TEMPERATURE IN CELSIUS
VSB - VISIBILITY IN STATUTE MILES
WCI - WIND CHILL INDEX
HX  - HEAT INDEX



USA.gov is the U.S. government's official web portal to all federal, state and local government web resources and services.